Regional Weather Roundup
Issued by NWS

Home | Current Version | Previous Version | Graphics & Text | Print | Product List | Glossary On
Versions: 1 2 3 4 5 6 7 8 9 10 11 12 13 14 15 16 17 18 19 20 21 22 23 24 25 26 27 28
000
ASUS45 KPSR 240510
RWRAZ

ARIZONA HOURLY REGIONAL WEATHER ROUNDUP
NATIONAL WEATHER SERVICE PHOENIX AZ
1000 PM MST THU NOV 23 2017

NOTE: FAIR INDICATES FEW OR NO CLOUDS BELOW 12,000 FEET WITH NO
SIGNIFICANT WEATHER AND/OR OBSTRUCTIONS TO VISIBILITY.

AZZ001>003-036-240600-
NORTHWEST ARIZONA

CITY           SKY/WX    TMP DP  RH WIND       PRES   REMARKS
BULLHEAD CITY  CLEAR     70  36  28 NE6       29.95S
KINGMAN        PTCLDY    53  28  38 CALM      30.09F
$$

AZZ004>008-015-016-018-240600-
NORTH CENTRAL ARIZONA

CITY           SKY/WX    TMP DP  RH WIND       PRES   REMARKS
GRAND CANYON   PTCLDY    29  14  53 CALM      30.26F
WILLIAMS       PTCLDY    37  16  41 S10       30.27S WCI  30
PRESCOTT       CLEAR     48  33  56 S6        30.18R
FLAGSTAFF      PTCLDY    32  24  72 CALM      30.29F
PAYSON         CLEAR     54  25  32 CALM      30.20S
PAGE           PTCLDY    48  33  56 CALM      30.15S
$$

AZZ009>014-017-240600-
NORTHEAST ARIZONA

CITY           SKY/WX    TMP DP  RH WIND       PRES   REMARKS
WINSLOW        CLEAR     41  23  48 CALM      30.21R
SAINT JOHNS    CLEAR     44  23  43 S8        30.22S
WINDOW ROCK    CLEAR     33  20  58 CALM      30.26F
SHOW LOW       CLEAR     39  23  52 S5        30.27S
$$

AZZ540-542>544-546-548-240600-
GREATER PHOENIX AREA

CITY           SKY/WX    TMP DP  RH WIND       PRES   REMARKS
PHOENIX        PTCLDY    69  42  37 CALM      29.93S
BUCKEYE        CLEAR     64  28  25 N8        29.94S
LUKE AFB       CLEAR     63  36  37 NE7       29.93S
DEER VALLEY    CLEAR     66  33  29 CALM      29.96R
SCOTTSDALE     CLEAR     66  41  40 CALM      29.97S
$$

AZZ539-553-240600-
SOUTHWEST MARICOPA COUNTY AND PINAL COUNTY

CITY           SKY/WX    TMP DP  RH WIND       PRES   REMARKS
CASA GRANDE    NOT AVBL
$$

AZZ503-504-507>509-240600-
SOUTHEAST ARIZONA

CITY           SKY/WX    TMP DP  RH WIND       PRES   REMARKS
TUCSON         CLEAR     60  24  25 SE3       30.05R
DAVIS-MONTHAN  CLEAR     58  24  26 S7        30.03R
NOGALES        CLEAR     55  24  30 CALM      30.10S
SIERRA VISTA   CLEAR     55  21  26 W6        30.16R
DOUGLAS        CLEAR     51  21  30 N3        30.13S
SAFFORD        CLEAR     54  21  27 S3        30.07R
$$

AZZ532-240600-
SOUTHWEST ARIZONA

CITY           SKY/WX    TMP DP  RH WIND       PRES   REMARKS
YUMA           CLEAR     69  40  34 CALM      29.91S
$$

CAZ041-043-047-048-061-525>527-560>570-240600-
SOUTHERN CALIFORNIA

CITY           SKY/WX    TMP DP  RH WIND       PRES   REMARKS
DOWNTOWN L.A.  CLEAR     67  54  63 CALM      29.93R
L.A. AIRPORT   PTCLDY    68  58  70 CALM      29.93S
SAN DIEGO      PTCLDY    70  43  37 CALM      29.95S
BURBANK        CLEAR     71  43  36 CALM      29.95R
ONTARIO        PTCLDY    71  42  35 NE3       29.97R
RIVERSIDE      CLEAR     70  47  43 NE3       29.97R
PALM SPRINGS   CLEAR     71  38  29 N6        29.96R
EL CENTRO NAS  CLEAR     67  38  34 NW3       29.93R
IMPERIAL       CLEAR     64  45  49 W6        29.90S
BLYTHE         CLEAR     64  35  34 CALM      29.93S
NEEDLES        PTCLDY    69  34  27 CALM      29.96S
$$

NVZ020-UTZ003-240600-
SOUTHERN NEVADA-UTAH

CITY           SKY/WX    TMP DP  RH WIND       PRES   REMARKS
LAS VEGAS      PTCLDY    63  39  41 S3        30.03S
SALT LAKE CITY CLOUDY    51  45  79 N7        30.05R
$$

NMZ009-TXZ055-240600-
NEW MEXICO-WEST TEXAS

CITY           SKY/WX    TMP DP  RH WIND       PRES   REMARKS
ALBUQUERQUE    CLOUDY    49  31  49 E3        30.19F
EL PASO        PTCLDY    59  27  29 S5        30.12F
$$


........................KEY........................
SKY/WX - SKY CONDITION/WEATHER
TMP    - TEMPERATURE IN FAHRENHEIT
DP     - DEW POINT IN FAHRENHEIT
RH     - RELATIVE HUMIDITY IN PERCENT
WIND   - DIRECTION AND SPEED IN MILES PER HOUR (MPH)
VRB    - VARIABLE WIND DIRECTION
PRES   - MEAN SEA LEVEL PRESSURE IN INCHES OF MERCURY
         F - FALLING PRESSURE   R - RISING PRESSURE
         S - STEADY PRESSURE
VSB    - VISIBILITY IN MILES
HX     - HEAT INDEX IN FAHRENHEIT
WCI    - WIND CHILL INDEX IN FAHRENHEIT
TC     - TEMPERATURE IN CELSIUS WHICH IS ALSO KNOWN AS
         TEMPERATURE IN CENTIGRADE
AFB    - AIR FORCE BASE
         LUKE AFB IS LUKE AIR FORCE BASE
         DAVIS-MONTHAN IS DAVIS-MONTHAN AIR FORCE BASE
NAS    - NAVAL AIR STATION
         EL CENTRO NAS IS EL CENTRO NAVAL AIR STATION
N/A    - NOT AVAILABLE





USA.gov is the U.S. government's official web portal to all federal, state and local government web resources and services.